Simultaneous Nadir Overpasses (SNOs) Predictions

Prediction of SNOs between FY3D and NOAA-19 Satellite Orbit:

Table of predicted SNOs for the next 14.0 days since TLE Epoch: 8/6/2022
Index Date (FY3D) Time (FY3D) Lat,Lon (FY3D) SZA (FY3D ) Date (NOAA-19) Time (NOAA-19) Lat,Lon (NOAA-19) SZA (NOAA-19 ) Distance(km) Time Diff (sec)
1 08/16/2022 14:40:14 -77.30, 124.64 115.83 08/16/2022 14:39:04 -77.32, 124.65 115.79 2.12 70
2 08/16/2022 15:31:00 77.30, -68.01 64.18 08/16/2022 15:29:58 77.31, -68.13 64.22 3.26 62
3 08/16/2022 16:21:46 -77.33, 99.14 115.77 08/16/2022 16:21:04 -77.32, 99.11 115.77 2.04 42
4 08/16/2022 17:12:32 77.33, -93.52 64.24 08/16/2022 17:11:57 77.35, -93.47 64.26 2.53 35
5 08/16/2022 18:03:17 -77.32, 73.82 115.76 08/16/2022 18:03:03 -77.35, 73.77 115.73 3.33 14
6 08/16/2022 18:54:04 77.36,-119.03 64.30 08/16/2022 18:53:57 77.34,-119.00 64.28 2.16 7
7 08/16/2022 19:44:49 -77.35, 48.31 115.71 08/16/2022 19:45:03 -77.34, 48.24 115.71 1.93 14
8 08/16/2022 20:35:35 77.34,-144.35 64.30 08/16/2022 20:35:56 77.37,-144.34 64.32 3.08 21
9 08/16/2022 21:26:21 -77.38, 22.80 115.65 08/16/2022 21:27:02 -77.37, 22.90 115.67 2.51 41
10 08/16/2022 22:17:07 77.37,-169.86 64.36 08/16/2022 22:17:56 77.36,-169.88 64.34 1.11 49
11 08/16/2022 23:07:52 -77.36, -2.52 115.64 08/16/2022 23:09:02 -77.36, -2.64 115.65 2.81 70
12 08/16/2022 23:58:41 77.48, 164.24 64.53 08/16/2022 23:59:53 77.47, 165.18 64.43 22.90 72



Historial Predications of SNOs between FY3D and NOAA-19
